User: anonymous   Login
Location: Unspecified
(0.0000°N, 0.0000°E)
Time: 20:37:05
(UTC+00:00)
Language:

PROITERES - Orbit

View from above orbital plane
View from above orbital plane
View from above satellite
View from above satellite

Ground track
Ground track

The orbit data is extracted from the following two-line orbital elements,

1 38756U 12047B   23338.42887302  .00001915  00000-0  27028-3 0  9994
2 38756  98.2979 217.6020 0012256 146.4869 213.7118 14.78398522605347
Epoch (UTC): 04 December 2023 10:17:34
Eccentricity: 0.0012256
inclination: 98.2979°
perigee height: 626 km
apogee height: 643 km
right ascension of ascending node: 217.6020°
argument of perigee: 146.4869°
revolutions per day: 14.78398522
mean anomaly at epoch: 213.7118°
orbit number at epoch: 60534

The dashed part of the orbit path shows where the satellite is in the earth's shadow,  

DLR